Location: D?mul?ru
(16.8306°N, 80.3647°E)
Time: 12:07:44
(UTC+00:00)

Daily predictions for brighter satellites

Satellite Brightness Start Highest point End
(mag) Time Altitude Azimuth Time Altitude Azimuth Time Altitude Azimuth
Cosmos 494 Rocket 4.1 13:24:15 10° S 13:29:10 50° ESE 13:34:04 10° NNE
Cosmos 1076 Rocket 3.6 13:25:17 10° N 13:29:33 81° W 13:33:50 10° S
NOAA 6 4.2 13:25:18 10° S 13:30:24 78° WSW 13:35:31 10° NNW
Cosmos 921 Rocket 3.0 13:29:31 10° S 13:33:56 77° E 13:38:25 10° NNE
ADEOS Rocket 3.4 13:29:31 10° S 13:35:36 78° WSW 13:42:25 10° NNW
Cosmos 192 4.3 13:33:45 10° N 13:38:39 71° ENE 13:43:33 10° SSE
Cosmos 1603 4.2 13:36:33 10° S 13:41:40 37° ESE 13:46:48 10° NE
Yuri Rocket 3.1 13:41:26 10° WNW 13:45:43 66° NNE 13:49:24 13° ESE
CZ-4 R/B 2.6 13:44:14 11° ESE 13:46:53 21° ENE 13:49:49 10° NNE
Resurs 1-3 4.2 13:45:45 10° SE 13:49:42 36° ENE 13:53:40 10° N
Landsat 7 3.9 13:49:58 10° S 13:54:40 83° W 13:59:21 10° NNW
Cosmos 2369 Rocket 4.0 13:53:41 10° NE 13:56:23 14° ENE 13:58:20 12° E
Cosmos 1048 Rocket 3.9 13:53:17 10° S 13:58:26 74° ESE 14:03:33 10° NNE
Meteor PRIRODA 3.5 13:55:33 10° S 13:58:57 79° W 14:02:20 10° NNW
GPS 2-14 Rocket1 2.2 14:01:10 10° W 14:04:11 54° SSW 14:05:34 27° SE
Cosmos 1378 4.3 14:01:34 10° SSW 14:04:37 38° W 14:07:40 10° NNW
Hubble Space Telescope 3.2 14:04:31 10° NW 14:07:22 18° N 14:10:13 10° NE
SJ-6B 2.7 14:04:35 15° SSE 14:07:35 60° ENE 14:11:13 10° N
Cosmos 1464 Rocket 3.9 14:01:57 10° N 14:08:05 67° E 14:14:09 10° SSE
Cosmos 1943 Rocket 2.8 14:02:38 10° NNW 14:08:05 55° WSW 14:13:28 10° S
Skynet4D Del rocket 3.9 14:04:41 10° WNW 14:10:29 74° SSW 14:14:53 22° ESE
Cosmos 1943 3.9 14:05:38 10° SSW 14:11:12 58° WNW 14:16:46 10° N
Cosmos 44 3.6 14:09:45 10° N 14:13:58 40° ENE 14:15:41 27° ESE
Meteor 2-6 Rocket 4.3 14:09:17 10° S 14:14:48 56° E 14:20:10 10° NNE
NOSS 3-3 (C) 4.4 14:15:28 24° ESE 14:15:28 24° ESE 14:19:34 10° ENE
ATLAS 3B R/B 3.1 14:09:10 10° NNW 14:16:50 60° ENE 14:21:48 22° SE
SPOT 1/Viking Rocket 3.5 14:13:44 16° SSE 14:17:50 64° ENE 14:22:55 10° N
USA 290 3.3 14:25:13 10° NNW 14:28:15 42° WSW 14:29:53 22° SSW
Meteor 1-5 Rocket 4.1 14:24:11 10° N 14:29:47 76° E 14:33:22 22° SSE
Lacrosse 5 1.9 14:25:05 10° NW 14:30:10 76° WSW 14:32:43 30° SSE
Cosmos 1371 Rocket 4.1 14:25:36 10° N 14:30:52 60° ENE 14:33:05 34° SE
Cosmos 1420 Rocket 3.9 14:25:53 10° N 14:31:10 77° ENE 14:33:54 29° SSE
Haruka 4.4 14:03:31 10° WNW 14:33:17 88° SSW 14:36:41 32° ESE
VEP-3 3.4 14:19:45 10° WNW 14:33:18 61° SSW 14:36:17 30° SE
OAO 2 Rocket 3.3 14:34:25 10° NW 14:39:42 82° NNE 14:41:18 46° ESE
GPS 2-17 Rocket1 2.9 14:40:44 10° W 14:45:19 84° SSW 14:46:00 64° ESE
Cosmos 2221 4.4 14:41:40 10° SW 14:45:24 29° W 14:49:11 10° NNW
ARIANE DEB (SYLDA) 4.4 14:41:59 10° SW 14:46:15 29° SSE 14:47:24 28° SSE
CZ-4B R/B 3.0 14:47:14 36° SSE 14:49:32 88° WSW 14:54:51 10° NNW
USA 186 3.0 14:56:31 39° W 14:56:31 39° W 14:59:12 10° NNW
Cosmos 1842 Rocket 3.8 14:54:53 38° SSW 14:56:29 68° W 15:00:52 10° N
Cosmos 2034 Rocket 4.4 14:52:32 10° NNW 14:58:44 64° W 15:03:03 21° SSW
Delta 202 4.0 14:54:17 10° W 15:00:04 88° N 15:03:06 39° E
Cosmos 1743 3.8 14:58:10 10° N 15:00:20 34° N 15:00:20 34° N
CSL-04 Rocket 3.5 15:02:37 59° S 15:03:40 85° WSW 15:08:57 10° NNW
Meteor 1-27 Rocket 4.1 15:05:13 44° NE 15:05:13 44° NE 15:09:24 10° NNE
Cosmos 1818 3.6 15:01:29 10° SSW 15:06:51 75° WNW 15:12:17 10° NNE
CSL-04 Debris 4.4 15:09:32 46° SSW 15:10:59 64° WSW 15:16:23 10° NNW
Cosmos 1656 Rocket 4.0 15:11:43 10° NNW 15:17:08 57° WSW 15:18:00 51° SW
Cosmos 2297 4.1 15:12:12 10° NNW 15:17:45 57° WSW 15:18:43 50° SW
Resurs 01 Rocket 2.7 15:21:08 39° WSW 15:21:14 39° W 15:25:21 10° NNW
CZ-4 R/B 4.1 15:19:49 10° WSW 15:21:20 12° W 15:22:53 10° WNW
Okean O Rocket 2.6 15:24:39 44° WNW 15:24:39 44° WNW 15:28:23 10° NNW
SeaSat 1 3.1 15:33:05 52° NW 15:33:05 52° NW 15:36:48 10° NNW
USA 229 DEB 3.9 15:27:29 10° NNW 15:35:30 85° ENE 15:36:15 76° SE
USA 229 3.9 15:27:35 10° NNW 15:35:36 84° ENE 15:36:21 76° SE
Cosmos 2369 Rocket 2.9 15:35:04 10° NNW 15:40:08 46° W 15:40:08 46° W
Hubble Space Telescope 3.7 15:46:22 10° NNW 15:47:18 13° NNW 15:47:18 13° NNW
FALCON 9 R/B 4.5 16:13:49 10° NW 16:20:50 49° NE 16:25:25 40° ENE
USA 59 Rocket 3.3 16:46:43 10° N 16:47:08 13° N 16:47:08 13° N
ATLAS 2AS CENTAUR R/B 4.5 20:38:03 10° N 20:43:19 25° ENE 20:48:30 10° ESE
Cosmos 2219 Rocket 4.3 20:42:19 10° N 20:44:29 22° NNE 20:44:29 22° NNE
Cosmos 2227 Rocket 3.3 21:14:20 40° ENE 21:14:20 40° ENE 21:18:13 10° NNE
Atlas Centaur 2 4.2 21:17:51 16° N 21:17:51 16° N 21:19:45 10° NNE
Envisat 4.3 21:17:49 10° NNE 21:21:20 37° ENE 21:21:20 37° ENE
COSMOS 2428 4.1 21:18:39 10° N 21:23:47 34° ENE 21:26:54 20° ESE
ALOS 4.5 21:21:36 10° N 21:22:54 19° N 21:22:54 19° N
USA 234 4.5 21:20:39 10° ESE 21:26:38 39° NE 21:32:36 10° NNW
Cosmos 2297 Rocket 3.6 21:37:30 27° NNW 21:37:30 27° NNW 21:40:24 10° N
CZ-2C R/B 3.5 21:33:42 10° NNE 21:37:15 36° ENE 21:37:15 36° ENE
IRS-1D 4.4 21:41:29 10° NNE 21:46:26 42° E 21:47:15 39° SE
Sakura Rocket 4.2 21:46:53 68° SSW 21:47:39 74° SSE 21:54:00 10° ENE
Nadezhda 3 Rocket 4.2 21:43:05 10° NNW 21:48:13 55° NW 21:48:13 55° NW
CZ-4 R/B 4.4 21:44:41 10° NNE 21:48:23 54° N 21:48:23 54° N
Cosmos 2366 rocket 3.9 21:52:02 69° S 21:52:52 88° E 21:59:14 10° N
CZ-4C R/B 4.0 21:58:20 12° NNW 21:58:20 12° NNW 21:59:07 10° NNW
SL-24 DEB 4.4 21:56:22 10° N 22:00:16 66° NNE 22:00:16 66° NNE
Cosmos 2341 Rocket 4.1 22:06:05 52° W 22:06:05 52° W 22:12:02 10° N
PAYLOAD A 4.0 22:03:07 10° NNE 22:08:11 84° ESE 22:09:05 61° S
Cosmos 1455 Rocket 3.1 22:08:58 10° N 22:12:50 67° NNW 22:12:50 67° NNW
ASTRO E2 3.6 22:16:56 36° N 22:16:56 36° N 22:19:31 10° NE
Cosmos 2084 Rocket 3.4 22:17:31 73° NW 22:17:31 73° NW 22:21:46 10° NNE
GPS 2-12 Rocket1 3.0 22:17:44 66° SSE 22:17:44 66° SSE 22:22:09 10° E
BlueWalker 3 3.9 22:19:59 18° NNW 22:19:59 18° NNW 22:21:47 10° N
SL-16 R/B 2.9 22:24:15 39° W 22:24:15 39° W 22:29:59 10° NW
Thor Agena Rocket 3.5 22:19:09 10° N 22:24:23 73° WNW 22:26:02 44° SSW
Cosmos 372 Rocket 4.0 22:24:13 36° S 22:26:21 81° ESE 22:31:35 10° NNE
NOSS 3-2 (A) 2.7 22:25:53 51° SSW 22:27:08 84° WNW 22:32:16 10° NNE
ASTEX 1 3.4 22:27:35 50° SW 22:28:16 55° W 22:33:03 10° NNW
ATLAS 2A CENTAUR R/B 3.7 22:28:40 11° N 22:28:58 11° N 22:29:48 10° NNE
CENTAUR R/B 2.5 22:31:37 37° W 22:32:30 40° WNW 22:37:49 10° N
ATLAS 2AS CENTAUR R/B 3.0 22:28:07 10° NW 22:34:03 36° WSW 22:39:58 10° S
Cosmos 2263 Rocket 2.1 22:33:55 34° SSW 22:36:22 72° WNW 22:41:58 10° N
NOSS 0 Rocket 3.9 22:35:50 10° NNW 22:41:59 67° WSW 22:48:09 10° S
Cosmos 1437 Rocket 3.5 22:39:41 14° SSE 22:42:55 51° E 22:46:44 10° NNE
Cosmos 2082 3.7 22:40:31 30° SW 22:43:19 65° WNW 22:48:55 10° N
Cosmos 292 Rocket 4.3 22:43:24 33° W 22:44:13 36° WNW 22:48:33 10° N
H-2A R/B 2.2 22:41:50 10° NNE 22:47:14 79° ESE 22:52:31 10° S
GPS 2-15 Rocket1 4.1 22:46:09 26° SSW 22:47:40 32° SSE 22:51:46 10° E
DELTA 2 R/B (1) 3.9 22:47:54 21° W 22:51:03 40° SW 22:56:11 10° SSE
OAO 3 Rocket 4.1 22:51:07 27° SW 22:51:14 27° SW 22:55:21 10° SSE
Cosmos 858 Rocket 4.4 22:50:28 18° SSW 22:54:27 79° WNW 22:59:43 10° N
Cosmos 2219 4.2 22:53:47 23° W 22:55:40 28° WNW 23:00:26 10° NNW
GOES 2 Rocket 4.2 22:52:48 23° W 22:56:38 66° NNW 23:04:17 10° ENE
Cosmos 2227 Rocket 4.1 22:56:10 12° WNW 22:56:51 12° WNW 22:59:03 10° NW
Cosmos 1934 Rocket 4.4 22:52:16 10° S 22:58:20 64° E 23:04:29 10° NNE
Cosmos 2239 Rocket 4.5 22:54:53 10° SSW 23:01:04 66° W 23:07:12 10° N
Cosmos 2237 Rocket 2.1 22:59:36 10° NNW 23:05:11 67° WSW 23:10:45 10° S
Atlas Centaur 2 4.0 23:04:07 10° NNW 23:06:13 13° N 23:08:11 10° NE
ARIANE 5 R/B 3.5 23:04:56 13° SSW 23:06:36 18° SSE 23:11:22 10° ESE
COSMOS 2428 4.0 23:03:52 10° WNW 23:07:38 18° WSW 23:08:36 18° WSW
CBERS-1 4.0 23:02:41 10° N 23:07:45 69° WNW 23:12:49 10° SSW
USA 234 3.7 23:03:33 10° S 23:09:26 36° SW 23:15:20 10° WNW
SL-24 R/B - RUBIN 2 4.5 23:05:53 10° NW 23:11:38 44° WSW 23:16:44 10° S
Cosmos 1980 3.9 23:09:44 10° NNW 23:15:09 48° WSW 23:20:33 10° S
CZ-2C R/B 4.3 23:14:51 10° WNW 23:15:40 10° WNW 23:16:29 10° W
CZ-3A R/B 3.7 23:10:16 10° W 23:16:00 21° SW 23:18:45 10° S
Cosmos 1544 Rocket 4.4 23:17:59 10° NNW 23:21:53 31° W 23:25:47 10° SSW
USA 238 DEB 4.1 23:19:21 10° S 23:25:10 53° ESE 23:31:09 10° NE
USA 238 4.2 23:19:26 10° S 23:25:14 53° ESE 23:31:12 10° NE
SL-08 RB Rocket 4.3 23:25:08 10° NNE 23:29:28 57° E 23:33:50 10° S
Geosat 3.9 23:26:43 10° SSE 23:31:42 71° WSW 23:36:40 10° NNW
SWIFT 4.5 23:34:42 10° S 23:36:50 14° SSE 23:38:58 10° SE
ARGOS 3.2 23:34:27 10° N 23:39:49 73° WNW 23:45:12 10° SSW
FUSE 4.1 23:37:29 10° WSW 23:42:48 70° SSE 23:48:05 10° ENE
H-2A R/B 3.0 23:40:07 10° N 23:43:03 35° WNW 23:46:00 10° SW
IRS-P3 4.3 23:39:37 10° NNE 23:44:57 81° ESE 23:50:16 10° S
Delta 2 Rocket 3.9 23:41:36 10° SW 23:46:20 69° SE 23:51:17 10° ENE
Delta 2 Rocket 4.1 23:41:54 10° WNW 23:48:01 77° NNE 23:54:04 10° ESE
Cosmos 1605 Rocket 4.1 23:42:30 10° S 23:48:52 79° W 23:55:11 10° N
